Location: Сочи
(43.6028°N, 39.7342°E)
Time: 20:36:19
(UTC+03:00)

N. Korean satellite - Visible Passes

Search period start: 19 March 2019 00:00
Search period end: 29 March 2019 00:00
Orbit: 455 x 511 km, 97.2° (Epoch: 18 March)

Date Brightness Start Highest point End Pass type
(mag) Time Alt. Az. Time Alt. Az. Time Alt. Az.
19 Mar 9.7 05:47:57 10° NE 05:50:39 20° E 05:53:22 10° SE visible
20 Mar 10.5 05:24:57 10° E 05:25:39 10° E 05:26:21 10° ESE visible
23 Mar 9.8 05:42:16 10° NE 05:44:47 18° E 05:47:18 10° SE visible
27 Mar 9.9 05:36:35 10° NE 05:38:51 16° E 05:41:07 10° SE visible
